User: anonymous   Login
Location: Unspecified
(0.0000°N, 0.0000°E)
Time: 07:21:46
(UTC+00:00)
Language:

AEHF 1 (USA 214) - Orbit

View from above orbital plane
View from above orbital plane
View from above satellite
View from above satellite

Ground track
Ground track

The orbit data is extracted from the following two-line orbital elements,

1 36868U 10039A   15219.02753514 0.00000000  00000-0  00000-0 0    02
2 36868   1.4377 257.1528 0003423 167.4580 192.5648  1.00270000    03
Epoch (UTC): 07 August 2015 00:39:39
Eccentricity: 0.0003423
inclination: 1.4377°
perigee height: 35772 km
apogee height: 35801 km
right ascension of ascending node: 257.1528°
argument of perigee: 167.4580°
revolutions per day: 1.00270000
mean anomaly at epoch: 192.5648°
orbit number at epoch: 0

The dashed part of the orbit path shows where the satellite is in the earth's shadow,  

DLR